When you browse on this site, cookies collect data to enhance your experience and personalize the content and advertising you see.
Visit our Privacy Policy to learn more. By continuing to use the site, you agree to this use of cookies and data.
  • In Spain
  • List of Countries
  • For 7 days
  • Water Temperature
  • Satellite Maps
  • Weather Map
  • Weather Widgets
  • user-avatar
    Login

    Hourly Weather Brikama

    Today, 23 January, Wednesday

    Time Temperature Precipitation Wind Pressure Humidity
    00:00 +26°C° 0 mm 4 mps 758 mmHg 27%
    01:00 +25°C° 0 mm 4 mps 758 mmHg 26%
    02:00 +25°C° 0 mm 4 mps 758 mmHg 26%
    03:00 +25°C° 0 mm 5 mps 758 mmHg 26%
    04:00 +23°C° 0 mm 5 mps 758 mmHg 26%
    05:00 +23°C° 0 mm 6 mps 758 mmHg 26%
    06:00 +23°C° 0 mm 6 mps 758 mmHg 26%
    07:00 +24°C° 0 mm 6 mps 758 mmHg 26%
    08:00 +24°C° 0 mm 6 mps 758 mmHg 26%
    09:00 +27°C° 0 mm 6 mps 758 mmHg 22%
    10:00 +30°C° 0 mm 6 mps 758 mmHg 18%
    11:00 +33°C° 0 mm 5 mps 758 mmHg 15%
    12:00 +34°C° 0 mm 5 mps 757 mmHg 14%
    13:00 +35°C° 0 mm 4 mps 757 mmHg 13%
    14:00 +36°C° 0 mm 3 mps 756 mmHg 12%
    15:00 +35°C° 0 mm 4 mps 756 mmHg 16%
    16:00 +34°C° 0 mm 5 mps 756 mmHg 20%
    17:00 +33°C° 0 mm 6 mps 756 mmHg 24%
    18:00 +30°C° 0 mm 6 mps 756 mmHg 31%
    19:00 +28°C° 0 mm 7 mps 757 mmHg 38%
    20:00 +27°C° 0 mm 7 mps 757 mmHg 46%
    21:00 +27°C° 0 mm 6 mps 758 mmHg 45%
    22:00 +26°C° 0 mm 6 mps 758 mmHg 43%
    23:00 +26°C° 0 mm 5 mps 758 mmHg 42%

    Tomorrow, 24 January, Thursday

    Time Temperature Precipitation Wind Pressure Humidity
    00:00 +25°C° 0 mm 5 mps 757 mmHg 42%
    01:00 +25°C° 0 mm 5 mps 757 mmHg 41%
    02:00 +25°C° 0 mm 5 mps 757 mmHg 41%
    03:00 +23°C° 0 mm 5 mps 757 mmHg 41%
    04:00 +23°C° 0 mm 5 mps 757 mmHg 41%
    05:00 +23°C° 0 mm 5 mps 757 mmHg 42%
    06:00 +23°C° 0 mm 5 mps 757 mmHg 39%
    07:00 +25°C° 0 mm 5 mps 757 mmHg 37%
    08:00 +25°C° 0 mm 5 mps 758 mmHg 34%
    09:00 +27°C° 0 mm 5 mps 758 mmHg 29%
    10:00 +29°C° 0 mm 5 mps 758 mmHg 24%
    11:00 +32°C° 0 mm 5 mps 758 mmHg 18%
    12:00 +33°C° 0 mm 5 mps 757 mmHg 18%
    13:00 +34°C° 0 mm 5 mps 756 mmHg 17%
    14:00 +35°C° 0 mm 5 mps 755 mmHg 16%
    15:00 +34°C° 0 mm 5 mps 755 mmHg 22%
    16:00 +32°C° 0 mm 5 mps 755 mmHg 28%
    17:00 +30°C° 0 mm 6 mps 755 mmHg 33%
    18:00 +29°C° 0 mm 6 mps 756 mmHg 41%
    19:00 +27°C° 0 mm 6 mps 756 mmHg 48%
    20:00 +26°C° 0 mm 5 mps 757 mmHg 55%
    21:00 +26°C° 0 mm 5 mps 757 mmHg 53%
    22:00 +26°C° 0 mm 5 mps 757 mmHg 52%
    23:00 +25°C° 0 mm 5 mps 757 mmHg 51%

    Day after tomorrow, 25 January, Friday

    Time Temperature Precipitation Wind Pressure Humidity
    00:00 +25°C° 0 mm 5 mps 757 mmHg 50%
    01:00 +25°C° 0 mm 4 mps 757 mmHg 49%
    02:00 +23°C° 0 mm 4 mps 756 mmHg 49%
    03:00 +23°C° 0 mm 4 mps 756 mmHg 48%
    04:00 +23°C° 0 mm 4 mps 756 mmHg 47%
    05:00 +22°C° 0 mm 4 mps 756 mmHg 47%
    06:00 +23°C° 0 mm 4 mps 757 mmHg 44%
    07:00 +23°C° 0 mm 4 mps 757 mmHg 41%
    08:00 +25°C° 0 mm 4 mps 758 mmHg 38%
    09:00 +27°C° 0 mm 4 mps 758 mmHg 33%
    10:00 +29°C° 0 mm 4 mps 758 mmHg 28%
    11:00 +32°C° 0 mm 4 mps 758 mmHg 23%
    12:00 +33°C° 0 mm 4 mps 757 mmHg 23%
    13:00 +33°C° 0 mm 4 mps 757 mmHg 23%
    14:00 +34°C° 0 mm 5 mps 756 mmHg 23%
    15:00 +33°C° 0 mm 5 mps 756 mmHg 29%
    16:00 +30°C° 0 mm 5 mps 756 mmHg 36%
    17:00 +29°C° 0 mm 5 mps 755 mmHg 42%
    18:00 +27°C° 0 mm 5 mps 756 mmHg 48%
    19:00 +26°C° 0 mm 5 mps 757 mmHg 54%
    20:00 +25°C° 0 mm 5 mps 757 mmHg 60%
    21:00 +25°C° 0 mm 5 mps 757 mmHg 61%
    22:00 +25°C° 0 mm 5 mps 758 mmHg 61%
    23:00 +23°C° 0 mm 5 mps 758 mmHg 61%

    26 January, Saturday

    Time Temperature Precipitation Wind Pressure Humidity
    00:00 +23°C° 0 mm 4 mps 757 mmHg 61%
    01:00 +23°C° 0 mm 4 mps 757 mmHg 61%
    02:00 +22°C° 0 mm 4 mps 756 mmHg 61%
    03:00 +22°C° 0 mm 4 mps 757 mmHg 61%
    04:00 +22°C° 0 mm 4 mps 757 mmHg 60%
    05:00 +22°C° 0 mm 5 mps 757 mmHg 60%
    06:00 +22°C° 0 mm 5 mps 757 mmHg 57%
    07:00 +22°C° 0 mm 5 mps 758 mmHg 53%
    08:00 +23°C° 0 mm 5 mps 758 mmHg 50%
    09:00 +26°C° 0 mm 5 mps 758 mmHg 42%
    10:00 +28°C° 0 mm 4 mps 758 mmHg 34%
    11:00 +30°C° 0 mm 4 mps 758 mmHg 25%
    12:00 +32°C° 0 mm 4 mps 757 mmHg 24%
    13:00 +33°C° 0 mm 4 mps 757 mmHg 22%
    14:00 +34°C° 0 mm 4 mps 756 mmHg 21%
    15:00 +33°C° 0 mm 5 mps 756 mmHg 28%
    16:00 +30°C° 0 mm 6 mps 756 mmHg 35%
    17:00 +29°C° 0 mm 6 mps 755 mmHg 41%
    18:00 +28°C° 0 mm 6 mps 756 mmHg 46%
    19:00 +27°C° 0 mm 6 mps 757 mmHg 51%
    20:00 +26°C° 0 mm 6 mps 757 mmHg 56%
    21:00 +26°C° 0 mm 5 mps 757 mmHg 55%
    22:00 +25°C° 0 mm 5 mps 758 mmHg 54%
    23:00 +25°C° 0 mm 5 mps 758 mmHg 53%

    27 January, Sunday

    Time Temperature Precipitation Wind Pressure Humidity
    00:00 +25°C° 0 mm 5 mps 757 mmHg 51%
    01:00 +25°C° 0 mm 5 mps 757 mmHg 49%
    02:00 +23°C° 0 mm 5 mps 757 mmHg 48%
    03:00 +23°C° 0 mm 5 mps 757 mmHg 46%
    04:00 +23°C° 0 mm 5 mps 757 mmHg 44%
    05:00 +23°C° 0 mm 5 mps 757 mmHg 42%
    06:00 +23°C° 0 mm 5 mps 757 mmHg 37%
    07:00 +25°C° 0 mm 5 mps 758 mmHg 31%
    08:00 +26°C° 0 mm 5 mps 758 mmHg 26%
    09:00 +28°C° 0 mm 5 mps 758 mmHg 21%
    10:00 +32°C° 0 mm 5 mps 758 mmHg 16%
    11:00 +35°C° 0 mm 5 mps 758 mmHg 11%
    12:00 +36°C° 0 mm 4 mps 757 mmHg 10%
    13:00 +37°C° 0 mm 4 mps 756 mmHg 10%
    14:00 +38°C° 0 mm 4 mps 755 mmHg 10%
    15:00 +36°C° 0 mm 5 mps 755 mmHg 14%
    16:00 +35°C° 0 mm 5 mps 755 mmHg 18%
    17:00 +33°C° 0 mm 6 mps 755 mmHg 22%
    18:00 +32°C° 0 mm 6 mps 756 mmHg 27%
    19:00 +30°C° 0 mm 5 mps 756 mmHg 32%
    20:00 +28°C° 0 mm 5 mps 757 mmHg 37%
    21:00 +28°C° 0 mm 5 mps 757 mmHg 33%
    22:00 +28°C° 0 mm 6 mps 757 mmHg 29%
    23:00 +28°C° 0 mm 6 mps 757 mmHg 25%

    28 January, Monday

    Time Temperature Precipitation Wind Pressure Humidity
    00:00 +28°C° 0 mm 5 mps 757 mmHg 24%
    01:00 +27°C° 0 mm 5 mps 756 mmHg 22%
    02:00 +27°C° 0 mm 4 mps 756 mmHg 21%
    03:00 +26°C° 0 mm 4 mps 756 mmHg 21%
    04:00 +26°C° 0 mm 4 mps 756 mmHg 20%
    05:00 +26°C° 0 mm 4 mps 756 mmHg 20%
    06:00 +26°C° 0 mm 5 mps 756 mmHg 19%
    07:00 +26°C° 0 mm 5 mps 757 mmHg 19%
    08:00 +27°C° 0 mm 5 mps 757 mmHg 19%
    09:00 +28°C° 0 mm 5 mps 757 mmHg 17%
    10:00 +29°C° 0 mm 6 mps 757 mmHg 15%
    11:00 +30°C° 0 mm 6 mps 757 mmHg 13%
    12:00 +32°C° 0 mm 5 mps 757 mmHg 12%
    13:00 +34°C° 0 mm 5 mps 756 mmHg 11%
    14:00 +35°C° 0 mm 4 mps 755 mmHg 9%
    15:00 +35°C° 0 mm 4 mps 755 mmHg 9%
    16:00 +35°C° 0 mm 3 mps 755 mmHg 10%
    17:00 +34°C° 0 mm 2 mps 754 mmHg 10%
    18:00 +32°C° 0 mm 2 mps 755 mmHg 16%
    19:00 +30°C° 0 mm 3 mps 755 mmHg 23%
    20:00 +28°C° 0 mm 3 mps 756 mmHg 30%
    21:00 +28°C° 0 mm 3 mps 756 mmHg 30%
    22:00 +28°C° 0 mm 2 mps 756 mmHg 30%
    23:00 +28°C° 0 mm 2 mps 756 mmHg 30%
    Show more